Find Starlink 35117

NORAD ID: 65632 Int'l Des: 2025-210 Owner: SPXS Country: US Constellation: starlink operational
LEOCIRCULAR

当前视图

正在加载3D地球...

About Starlink 35117

Starlink 35117 (NORAD 65632) is a starlink constellation satellite (v2 mini) launched Sep 18, 2025 by SPXS of US. It operates in LEO, CIRCULAR orbit with a mass of 575.00 kg.

即将过境

Passes for default location (London). Set your location on the main map for personalized predictions.

高度历史

Loading altitude history...

两行轨道根数

1 65632U 25210L 26265.71588135 .00014519 00000-0 44002-3 0 9994
2 65632 53.1598 111.4199 0001500 96.9055 263.2119 15.34399050 57905
Epoch: Sep 22, 2026 • Age: 13 hours

当前状态

高度 475.4 km
远地点 / 近地点 N/A
速度 7.63 km/s
星下点 -37.33°S, 138.93°W
发射日期 Sep 18, 2025
运行时间 1 year
类型 internet

技术详情

分类 Payload
质量 575.00 kg
干质量 530.00 kg
长度 0.30 m
跨度 29.00 m
形状 ? Box + pan
制造商 SPXS
平台类型 Starlink V2MO
阶段状态 In Orbit
所有者/国家 SPXS/US

Most Searched